Location: Alpha Ridge Park
(39.3209°N, 76.9128°W)
Time: 09:47:01
(UTC-04:00)

Transit 2A - Pass Details

Date: 01 June 2019
Orbit: 593 x 966 km, 66.7° (Epoch: 26 June)

Event Time Altitude Azimuth Distance (km) Brightness Sun altitude
Rises 13:32:08 0° 342° (NNW) 3,557 9.3 71.9°
Reaches altitude 10° 13:35:59 10° 5° (N) 2,544 8.6 71.6°
Maximum altitude 13:39:14 15° 39° (NE) 2,146 8.3 71.3°
Drops below altitude 10° 13:42:19 10° 73° (ENE) 2,403 8.6 71.1°
Sets 13:45:46 0° 96° (E) 3,244 9.2 70.7°
